COSMOS 1275 DEB, 12749

Orbit data source: Space-Track

COSMOS 1275 DEB, 12749 is space debris in LEO originally from a launch on Thu, 04 Jun 1981 UTC launched from the Plesetsk Missile And Space Complex (PKMTR). Debris objects in space refer to the collection of defunct objects orbiting the Earth. Examples of debris include non-operational satellites, rocket bodies, and fragments generated from explosions, collisions, or faulty payload assembly.

Loading next visibility...
Identifier
12749, 1981-053CS
Orbit
LEO
Country
Flag of CISCIS
Related business
Manufacturer
Unknown
Mission
Spacecraft
Bus & Motor
Unknown
Mass
Unknown
Launch date (UTC)
1981-06-04 (44 years ago)
Launch vehicle
Unknown
Launch site
Plesetsk Missile And Space Complex (PKMTR)
Object type
Payload
Rocket body
Debris
Shape & HBR
Unknown shape, 0.2 m
Radar Cross Section
Small (<0.1 m²)

Expand to show TLE details & history
Last TLE update: 18 hours ago

TLE from 18 hours ago
0 COSMOS 1275 DEB
1 12749U 81053CS  25302.32371075  .00000619  00000-0  61170-3 0  9994
2 12749  82.8095 249.8101 0063952 102.6144  22.2911 13.76126486214272
Epoch: 2025-10-29T07:46Z
TLE epoch observation values (Epoch: 2025-10-29T07:46:08.608Z)
Latitude
54.27858°
Longitude
-94.67476°
Altitude
943.1 km
Speed
7.407 km/s
True Right ascension
03h 59m 02s
True Declination
54° 07' 10"
Sunlit
Object was in full shadow at epoch
Visualization orbit readout
Latitude
Unknown
Longitude
Unknown
Altitude
Unknown
Speed
Unknown
Apparent Right ascension
Unknown
Apparent Declination
Unknown
Sunlit
N/A
Visualization observer readout
Local Sidereal Time
21:30:19
Azimuth
Unknown
Elevation
Unknown
Doppler factor
Unknown
Orbital elements
Apogee altitude
1,021.834 km
Perigee altitude
927.786 km
Semi-major axis
7,352.947 km
Eccentricity
0.0064
Inclination
82.8095°
RAAN
249.8101°
Arg. of periapsis
102.6144°
True anomaly
22.57114°
Mean anomaly
22.2911°
Eccentric anomaly
22.43091°
Mean motion
3.44232 °/min
Orbital period
104.58 mins
BSTAR
0.0006117
Loading maneuver chart data...
Computing Atmospheric mass density...
Loading historical data...
Loading historical data...
Loading historical data...
Loading historical data...
Loading historical data...
Loading historical data...
Loading historical data...

Documentation

Showing up to 5 results
|